Language: 


Des rapports , des résumés tant et plus, au choix de chacun....


Données statistiques de la station
Quotidien Rapport Janvier 9, 2017 Unités:  Anglais    Métrique   les deux
« Précédent Jour
Suivant Jour »
Quotidien Hebdomadaire Mensuel Annuel Actuel
  Haut: Bas: Moyen:
Température: 46.6 °F 32 °F 44.6 °F
Pt de rosée: 46 °F 41.9 °F 43.9 °F
Humidité: 98 % 0 % 97 %
Vitesse du vent: 13.6 mph 0 mph 5 mph
Rafales: 16.1 mph - -
Vent:- - SSW
Pression: 30.4 in 0 in -
Précipitation: 0.26 in    
Historical Graphs
 
 
Données statistiques pour Janvier 9, 2017
Heure Température Point de rosée Pression Vent Vitesse du vent Refales Humidité Pluie (taux horaire)
00:01 43.2 °F 42.6 °F 30.4 in Calm   4.7 mph 98 % 0 in
00:06 43.2 °F 42.6 °F 30.4 in SW 2 mph 4.7 mph 98 % 0 in
00:11 43.2 °F 42.6 °F 30.4 in Calm   3.1 mph 98 % 0 in
00:16 43.2 °F 42.6 °F 30.4 in South 3.8 mph 4.5 mph 98 % 0 in
00:21 43.2 °F 42.6 °F 30.4 in South 2 mph 4.7 mph 98 % 0 in
00:26 43.2 °F 42.6 °F 30.4 in South 2.2 mph 4.7 mph 98 % 0 in
00:31 43.2 °F 42.6 °F 30.4 in Calm   4.7 mph 98 % 0 in
00:36 43.2 °F 42.6 °F 30.4 in SSE 1.1 mph 4 mph 98 % 0 in
00:41 43.2 °F 42.6 °F 30.4 in Calm   3.4 mph 98 % 0 in
00:46 43.2 °F 42.6 °F 30.4 in Calm   1.1 mph 98 % 0 in
00:51 43.2 °F 42.6 °F 30.4 in Calm   2.2 mph 98 % 0 in
00:56 43 °F 42.4 °F 30.4 in Calm   2.2 mph 98 % 0 in
01:01 43 °F 42.4 °F 30.4 in Calm   1.6 mph 98 % 0 in
01:06 43 °F 42.4 °F 30.4 in South 4.3 mph 5.6 mph 98 % 0 in
01:11 43 °F 42.4 °F 30.4 in SSW 2.5 mph 5.6 mph 98 % 0 in
01:16 43 °F 42.4 °F 30.4 in SSW 2.9 mph 5.4 mph 98 % 0 in
01:21 43.2 °F 42.6 °F 30.4 in SSW 2.2 mph 4 mph 98 % 0 in
01:26 43.2 °F 42.6 °F 30.4 in South 0.9 mph 4 mph 98 % 0 in
01:31 43.2 °F 42.6 °F 30.4 in SSW 3.6 mph 4.3 mph 98 % 0 in
01:36 43.2 °F 42.6 °F 30.4 in Calm   4.3 mph 98 % 0 in
01:41 43.3 °F 42.8 °F 30.4 in Calm   4 mph 98 % 0 in
01:46 43.3 °F 42.8 °F 30.4 in South 4 mph 4.9 mph 98 % 0 in
01:51 43.3 °F 42.8 °F 30.4 in South 3.6 mph 4.9 mph 98 % 0 in
01:56 43.3 °F 42.8 °F 30.4 in South 4 mph 5.4 mph 98 % 0 in
02:02 32 °F 42.8 °F 0 in SSW 4 mph 5.8 mph 0 % 0 in
02:07 43.3 °F 42.8 °F 30.4 in SSW 3.4 mph 5.8 mph 98 % 0 in
02:12 43.3 °F 42.8 °F 30.4 in SSW 2.7 mph 5.4 mph 98 % 0 in
02:17 43.3 °F 42.8 °F 30.4 in SSW 3.4 mph 5.4 mph 98 % 0 in
02:22 43.3 °F 42.8 °F 30.4 in South 4.7 mph 4.9 mph 98 % 0 in
02:27 43.5 °F 43 °F 30.4 in South 5.6 mph 5.8 mph 98 % 0 in
02:32 43.5 °F 43 °F 30.4 in Calm   6.5 mph 98 % 0 in
02:43 43.5 °F 43 °F 30.4 in SSW 4 mph 5.6 mph 98 % 0 in
02:48 43.5 °F 43 °F 30.4 in South 3.8 mph 5.6 mph 98 % 0 in
02:53 43.5 °F 43 °F 30.4 in South 3.1 mph 5.6 mph 98 % 0 in
02:58 43.5 °F 43 °F 30.4 in South 3.8 mph 4.9 mph 98 % 0 in
03:03 43.5 °F 43 °F 30.4 in South 2.5 mph 5.6 mph 98 % 0 in
03:08 43.5 °F 43 °F 30.4 in SSW 3.6 mph 5.6 mph 98 % 0 in
03:13 43.5 °F 43 °F 30.4 in SSW 3.8 mph 3.8 mph 98 % 0 in
03:18 43.5 °F 43 °F 30.4 in SW 3.8 mph 5.6 mph 98 % 0 in
03:23 43.5 °F 43 °F 30.3 in SSW 5.4 mph 5.6 mph 98 % 0 in
03:28 43.5 °F 43 °F 30.3 in SSW 2.2 mph 5.8 mph 98 % 0 in
03:37 43.5 °F 43 °F 30.4 in Calm   5.4 mph 98 % 0 in
03:42 43.5 °F 43 °F 30.4 in SW 5.4 mph 5.4 mph 98 % 0 in
03:47 43.5 °F 43.2 °F 30.4 in Calm   5.4 mph 98 % 0 in
03:52 43.5 °F 43.2 °F 30.3 in Calm   4.9 mph 98 % 0 in
03:57 43.5 °F 43.2 °F 30.3 in SW 3.4 mph 3.4 mph 98 % 0 in
04:02 43.5 °F 43.2 °F 30.3 in Calm   3.4 mph 98 % 0 in
04:07 43.5 °F 43.2 °F 30.3 in SW 3.6 mph 3.6 mph 98 % 0 in
04:12 43.5 °F 43.2 °F 30.3 in Calm   4.3 mph 98 % 0 in
04:17 43.5 °F 43.2 °F 30.3 in Calm   4.3 mph 98 % 0 in
04:22 43.5 °F 43.2 °F 30.4 in South 3.4 mph 3.4 mph 98 % 0 in
04:27 43.5 °F 43.2 °F 30.4 in SSW 5.6 mph 6.5 mph 98 % 0 in
04:32 43.5 °F 43.2 °F 30.4 in South 1.3 mph 6.5 mph 98 % 0 in
04:37 43.5 °F 43.2 °F 30.3 in South 3.4 mph 4.3 mph 98 % 0 in
04:42 43.5 °F 43.2 °F 30.3 in Calm   4.3 mph 98 % 0 in
04:47 43.5 °F 43 °F 30.3 in Calm   4.3 mph 98 % 0 in
04:52 43.5 °F 43 °F 30.3 in Calm   4.3 mph 98 % 0 in
04:57 43.5 °F 43 °F 30.3 in WSW 4.3 mph 4.3 mph 98 % 0 in
05:02 43.5 °F 43 °F 30.3 in SW 3.1 mph 5.8 mph 98 % 0 in
05:07 43.5 °F 43 °F 30.3 in Calm   5.8 mph 98 % 0 in
05:12 43.5 °F 43 °F 30.3 in SW 3.4 mph 4.7 mph 98 % 0 in
05:17 43.5 °F 43 °F 30.3 in SW 4 mph 5.6 mph 98 % 0 in
05:22 43.5 °F 43 °F 30.3 in Calm   5.6 mph 98 % 0 in
05:27 43.5 °F 43.2 °F 30.3 in Calm   4.3 mph 98 % 0 in
05:32 43.5 °F 43.2 °F 30.3 in Calm   3.6 mph 98 % 0 in
05:37 43.5 °F 43.2 °F 30.3 in Calm   3.6 mph 98 % 0 in
05:42 43.5 °F 43 °F 30.3 in Calm     98 % 0 in
05:47 43.5 °F 43 °F 30.3 in Calm     98 % 0 in
05:52 43.5 °F 43 °F 30.3 in Calm     98 % 0 in
05:57 43.5 °F 43 °F 30.3 in Calm   4 mph 98 % 0 in
06:02 43.5 °F 43 °F 30.3 in Calm   4 mph 98 % 0 in
06:07 43.5 °F 43 °F 30.3 in Calm   2.5 mph 98 % 0 in
06:12 43.3 °F 42.8 °F 30.3 in Calm   2.5 mph 98 % 0 in
06:17 43.3 °F 42.8 °F 30.3 in Calm     98 % 0 in
06:22 43.3 °F 42.8 °F 30.3 in South 5.4 mph 5.6 mph 98 % 0 in
06:27 43.5 °F 43 °F 30.3 in South 4.3 mph 6.5 mph 98 % 0 in
06:32 43.5 °F 43 °F 30.3 in SSW 5.4 mph 6.7 mph 98 % 0 in
06:37 43.5 °F 43 °F 30.3 in SSW 3.4 mph 6.7 mph 98 % 0 in
06:42 43.5 °F 43 °F 30.3 in South 4 mph 6.3 mph 98 % 0 in
06:47 43.5 °F 43 °F 30.3 in Calm   5.8 mph 98 % 0 in
06:52 43.5 °F 43 °F 30.3 in South 6 mph 6.3 mph 98 % 0 in
06:57 43.5 °F 43 °F 30.3 in South 2.9 mph 6.3 mph 98 % 0 in
07:02 43.5 °F 43 °F 30.3 in SSE 5.8 mph 6.3 mph 98 % 0 in
07:07 43.5 °F 43 °F 30.3 in SSE 4.9 mph 7.2 mph 98 % 0 in
07:12 43.3 °F 42.8 °F 30.3 in SSE 4 mph 8.1 mph 98 % 0 in
07:17 43.3 °F 42.8 °F 30.3 in South 5.8 mph 8.1 mph 98 % 0 in
07:22 43.3 °F 42.8 °F 30.3 in South 4.5 mph 6 mph 98 % 0 in
07:27 43.2 °F 42.6 °F 30.3 in SSW 5.8 mph 7.2 mph 98 % 0 in
07:32 43.2 °F 42.6 °F 30.3 in South 4 mph 7.2 mph 98 % 0 in
07:37 43.2 °F 42.6 °F 30.3 in South 5.8 mph 7.4 mph 98 % 0 in
07:42 43 °F 42.4 °F 30.3 in South 8.1 mph 8.1 mph 98 % 0 in
07:47 42.8 °F 42.3 °F 30.3 in South 5.4 mph 8.1 mph 98 % 0 in
07:52 42.8 °F 42.3 °F 30.3 in South 3.1 mph 7.8 mph 98 % 0 in
07:57 42.8 °F 42.3 °F 30.3 in SSW 3.4 mph 10.1 mph 98 % 0 in
08:02 42.8 °F 42.3 °F 30.3 in SSW 4.7 mph 10.1 mph 98 % 0 in
08:07 42.8 °F 42.3 °F 30.3 in South 2.7 mph 7.8 mph 98 % 0 in
08:12 42.8 °F 42.3 °F 30.3 in South 4.3 mph 7.8 mph 98 % 0 in
08:17 42.8 °F 42.3 °F 30.3 in South 6 mph 7.8 mph 98 % 0 in
08:22 42.8 °F 42.3 °F 30.2 in South 6.5 mph 7.8 mph 98 % 0 in
08:28 42.8 °F 42.3 °F 30.2 in South 6 mph 7.8 mph 98 % 0 in
08:29 42.8 °F 42.3 °F 30.2 in SSW 8.1 mph 8.5 mph 98 % 0 in
08:34 42.8 °F 42.3 °F 30.2 in South 4.3 mph 8.5 mph 98 % 0 in
08:39 42.8 °F 42.3 °F 30.3 in SSW 3.6 mph 8.5 mph 98 % 0 in
08:44 42.8 °F 42.3 °F 30.3 in South 6.3 mph 8.7 mph 98 % 0 in
08:49 42.8 °F 42.3 °F 30.3 in South 6.3 mph 8.7 mph 98 % 0 in
08:54 42.6 °F 42.1 °F 30.3 in SW 5.4 mph 8.5 mph 98 % 0 in
08:59 42.6 °F 42.1 °F 30.3 in SSW 4.9 mph 7.8 mph 98 % 0 in
09:04 42.6 °F 42.1 °F 30.3 in South 5.8 mph 7.8 mph 98 % 0 in
09:09 42.4 °F 41.9 °F 30.3 in SSW 5.6 mph 7.6 mph 98 % 0 in
09:14 42.4 °F 41.9 °F 30.3 in South 3.8 mph 8.5 mph 98 % 0 in
09:19 42.4 °F 41.9 °F 30.3 in South 7.4 mph 8.5 mph 98 % 0 in
09:24 42.4 °F 41.9 °F 30.3 in SW 6.3 mph 8.5 mph 98 % 0 in
09:29 42.4 °F 41.9 °F 30.3 in South 5.6 mph 8.5 mph 98 % 0 in
09:34 42.4 °F 41.9 °F 30.3 in SSW 5.6 mph 7.8 mph 98 % 0 in
09:39 42.4 °F 41.9 °F 30.3 in South 7.6 mph 8.1 mph 98 % 0 in
09:44 42.4 °F 41.9 °F 30.3 in South 4 mph 9.6 mph 98 % 0 in
09:49 42.4 °F 41.9 °F 30.3 in SSW 5.6 mph 9.8 mph 98 % 0 in
09:54 42.4 °F 41.9 °F 30.2 in SSW 3.4 mph 9.8 mph 98 % 0 in
09:59 42.6 °F 42.1 °F 30.2 in SSW 1.6 mph 7.4 mph 98 % 0 in
10:04 42.6 °F 42.1 °F 30.2 in SSW 4.9 mph 7.2 mph 98 % 0 in
10:09 42.6 °F 42.1 °F 30.2 in SSW 5.8 mph 7.4 mph 98 % 0 in
10:14 42.6 °F 42.1 °F 30.2 in SW 3.6 mph 7.4 mph 98 % 0 in
10:19 42.8 °F 42.3 °F 30.2 in Calm   6.3 mph 98 % 0 in
10:24 42.8 °F 42.3 °F 30.2 in SSW 4.7 mph 6.7 mph 98 % 0 in
10:29 43 °F 42.4 °F 30.2 in South 2.9 mph 6.7 mph 98 % 0 in
10:34 43.2 °F 42.6 °F 30.2 in SSW 4.7 mph 5.8 mph 98 % 0 in
10:39 43.2 °F 42.6 °F 30.2 in South 4.3 mph 6 mph 98 % 0 in
10:44 43.2 °F 42.6 °F 30.2 in SSW 6.3 mph 6.5 mph 98 % 0 in
10:49 43.2 °F 42.6 °F 30.2 in South 5.4 mph 8.7 mph 98 % 0 in
10:55 43.3 °F 42.8 °F 30.2 in SSW 4 mph 8.7 mph 98 % 0 in
11:00 43.3 °F 42.8 °F 30.2 in South 8.1 mph 8.1 mph 98 % 0 in
11:05 43.5 °F 43 °F 30.2 in SW 3.8 mph 8.1 mph 98 % 0 in
11:10 43.5 °F 43 °F 30.2 in SSW 3.8 mph 8.1 mph 98 % 0 in
11:15 43.5 °F 43 °F 30.2 in SW 4.3 mph 7.4 mph 98 % 0 in
11:20 43.5 °F 43.2 °F 30.2 in SSW 3.1 mph 8.1 mph 98 % 0 in
11:25 43.9 °F 43.3 °F 30.2 in SSW 4.9 mph 8.1 mph 98 % 0 in
11:30 43.9 °F 43.3 °F 30.2 in SW 4 mph 7.4 mph 98 % 0 in
11:35 44.1 °F 43.5 °F 30.2 in South 4 mph 7.6 mph 98 % 0 in
11:40 44.1 °F 43.5 °F 30.2 in South 5.8 mph 7.6 mph 98 % 0 in
11:45 44.2 °F 43.9 °F 30.2 in SSW 6.3 mph 7.2 mph 98 % 0 in
11:50 44.2 °F 43.9 °F 30.2 in South 4.7 mph 7.2 mph 98 % 0 in
11:55 44.4 °F 44.1 °F 30.2 in SSW 6.3 mph 6.9 mph 98 % 0 in
12:00 45 °F 44.2 °F 30.2 in South 7.2 mph 7.2 mph 98 % 0 in
12:05 45.1 °F 44.4 °F 30.2 in South 3.6 mph 8.5 mph 98 % 0 in
12:10 45.3 °F 45 °F 30.2 in South 7.2 mph 8.5 mph 98 % 0 in
12:15 45.7 °F 45.1 °F 30.2 in South 3.8 mph 9.2 mph 98 % 0 in
12:20 45.7 °F 45.1 °F 30.2 in SSW 5.6 mph 9.8 mph 98 % 0 in
12:25 45.9 °F 45.1 °F 30.2 in SSW 6.5 mph 9.8 mph 98 % 0 in
12:30 45.9 °F 45.1 °F 30.2 in SSW 3.8 mph 8.9 mph 98 % 0 in
12:35 45.9 °F 45.1 °F 30.2 in SW 7.6 mph 12.1 mph 98 % 0 in
12:40 45.9 °F 45.1 °F 30.2 in SSW 4.9 mph 12.1 mph 98 % 0 in
12:45 45.9 °F 45.1 °F 30.2 in SSW 7.8 mph 9.8 mph 98 % 0 in
12:50 45.9 °F 45.1 °F 30.2 in SSW 5.6 mph 9.8 mph 98 % 0 in
12:55 45.9 °F 45.3 °F 30.2 in SW 6 mph 8.1 mph 98 % 0 in
13:00 45.9 °F 45.1 °F 30.2 in South 3.4 mph 8.7 mph 98 % 0 in
13:05 45.9 °F 45.1 °F 30.2 in South 4.3 mph 8.7 mph 98 % 0 in
13:10 45.9 °F 45.3 °F 30.2 in SSW 7.6 mph 8.1 mph 98 % 0 in
13:15 45.9 °F 45.3 °F 30.2 in SW 5.4 mph 10.1 mph 98 % 0 in
13:20 45.9 °F 45.3 °F 30.2 in SSW 5.8 mph 10.1 mph 98 % 0 in
13:25 45.9 °F 45.3 °F 30.2 in SSW 6 mph 8.7 mph 98 % 0 in
13:30 45.9 °F 45.3 °F 30.2 in SSW 8.5 mph 8.7 mph 98 % 0 in
13:35 45.9 °F 45.1 °F 30.2 in South 4.9 mph 8.5 mph 98 % 0 in
13:40 45.9 °F 45.1 °F 30.2 in SSW 6.3 mph 8.7 mph 98 % 0 in
13:45 45.9 °F 45.1 °F 30.2 in SSW 7.4 mph 8.7 mph 98 % 0 in
13:50 45.9 °F 45.3 °F 30.2 in SW 3.6 mph 8.5 mph 98 % 0 in
13:55 45.9 °F 45.3 °F 30.2 in SW 8.7 mph 8.7 mph 98 % 0 in
14:00 45.9 °F 45.3 °F 30.2 in SSW 5.8 mph 8.7 mph 98 % 0 in
14:10 46 °F 45.7 °F 30.2 in South 6.5 mph 8.5 mph 98 % 0 in
14:15 46 °F 45.7 °F 30.2 in South 5.6 mph 10.3 mph 98 % 0 in
14:18 46.2 °F 45.9 °F 30.2 in SSW 3.6 mph 10.3 mph 98 % 0 in
14:23 46.2 °F 45.9 °F 30.1 in SW 4.9 mph 8.5 mph 98 % 0 in
14:28 46.2 °F 45.9 °F 30.1 in SSW 7.4 mph 9.8 mph 98 % 0 in
14:33 46.2 °F 45.9 °F 30.1 in South 4.3 mph 9.8 mph 98 % 0 in
14:38 46.2 °F 45.9 °F 30.1 in SSW 6.3 mph 10.1 mph 98 % 0 in
14:43 46.2 °F 45.9 °F 30.1 in SSW 8.5 mph 12.3 mph 98 % 0 in
14:48 46.2 °F 45.9 °F 30.1 in SW 6.3 mph 12.3 mph 98 % 0 in
14:53 46.2 °F 45.9 °F 30.1 in South 5.6 mph 10.5 mph 98 % 0 in
14:58 46.2 °F 45.9 °F 30.1 in SSW 6 mph 10.5 mph 98 % 0 in
15:03 46.2 °F 45.9 °F 30.1 in South 5.4 mph 9.8 mph 98 % 0 in
15:08 46.2 °F 45.9 °F 30.1 in SSW 6 mph 7.6 mph 98 % 0 in
15:13 46.2 °F 45.9 °F 30.1 in South 4.7 mph 8.5 mph 98 % 0 in
15:18 46.6 °F 45.9 °F 30.1 in South 6.5 mph 8.7 mph 98 % 0 in
15:23 46.6 °F 45.9 °F 30.1 in SSW 7.2 mph 8.7 mph 98 % 0 in
15:28 46.6 °F 46 °F 30.1 in South 8.5 mph 8.5 mph 98 % 0 in
15:33 46.6 °F 46 °F 30.1 in South 5.8 mph 10.7 mph 98 % 0 in
15:38 46.6 °F 46 °F 30.1 in South 5.8 mph 10.7 mph 98 % 0 in
15:43 46.6 °F 46 °F 30.1 in South 7.6 mph 8.7 mph 98 % 0 in
15:48 46.6 °F 45.9 °F 30.1 in SSW 7.4 mph 8.5 mph 98 % 0 in
15:53 46.6 °F 45.9 °F 30.1 in SSW 5.6 mph 8.7 mph 98 % 0 in
15:58 46.6 °F 45.9 °F 30.1 in South 6.5 mph 10.1 mph 98 % 0 in
16:03 46.6 °F 45.9 °F 30.1 in SSW 4.3 mph 10.1 mph 98 % 0 in
16:08 46.6 °F 45.9 °F 30 in SSW 6.5 mph 10.1 mph 98 % 0 in
16:13 46.6 °F 45.9 °F 30 in South 4.9 mph 12.3 mph 98 % 0 in
16:18 46.6 °F 45.9 °F 30 in SSW 6 mph 12.3 mph 98 % 0 in
16:23 46.6 °F 45.9 °F 30 in South 13.2 mph 13.2 mph 98 % 0 in
16:28 46.6 °F 45.7 °F 30 in SSW 5.6 mph 13.2 mph 97 % 0 in
16:33 46.6 °F 45.7 °F 30 in South 7.4 mph 13.2 mph 97 % 0 in
16:38 46.6 °F 45.7 °F 30 in SSW 6.5 mph 10.3 mph 97 % 0 in
16:43 46.6 °F 45.7 °F 30 in South 6.5 mph 10.3 mph 97 % 0 in
16:48 46.6 °F 45.7 °F 30 in SW 5.4 mph 10.3 mph 97 % 0 in
16:53 46.6 °F 45.7 °F 30 in SSW 7.6 mph 10.7 mph 97 % 0 in
16:58 46.6 °F 45.7 °F 30 in SSE 8.5 mph 10.7 mph 97 % 0 in
17:03 46.6 °F 45.7 °F 30 in South 7.6 mph 11 mph 97 % 0 in
17:08 46.6 °F 45.3 °F 30 in SW 5.8 mph 11 mph 96 % 0 in
17:13 46.6 °F 45.3 °F 30 in SW 3.1 mph 11 mph 96 % 0 in
17:16 46.6 °F 45.3 °F 30 in SW 3.1 mph 11 mph 96 % 0 in
17:21 46.6 °F 45.3 °F 30 in SSW 6.5 mph 9.6 mph 96 % 0 in
17:26 46.6 °F 45.3 °F 30 in SSW 10.5 mph 10.5 mph 96 % 0 in
17:31 46.6 °F 45.7 °F 30 in WSW 6 mph 10.7 mph 96 % 0 in
17:36 46.6 °F 45.7 °F 30 in SW 8.1 mph 11 mph 96 % 0 in
17:41 46.6 °F 45.7 °F 30 in SSW 4.9 mph 11 mph 96 % 0 in
17:46 46.6 °F 45.3 °F 30 in SSW 6.3 mph 7.4 mph 96 % 0 in
17:51 46.6 °F 45.3 °F 30 in SSW 8.1 mph 9.8 mph 96 % 0 in
17:56 46.6 °F 45.3 °F 30 in SSW 6.9 mph 9.8 mph 96 % 0 in
18:01 46.6 °F 45.3 °F 30 in SW 7.4 mph 10.7 mph 95 % 0 in
18:06 46.6 °F 45.3 °F 30 in SSW 6 mph 10.7 mph 95 % 0 in
18:11 46.6 °F 45.1 °F 30 in SSW 6 mph 10.5 mph 95 % 0 in
18:16 46.6 °F 45.1 °F 30 in WSW 8.7 mph 9.4 mph 95 % 0 in
18:21 46.6 °F 45.1 °F 30 in SSW 8.1 mph 11.4 mph 95 % 0 in
18:26 46.2 °F 45 °F 30 in SSW 4.9 mph 11.4 mph 95 % 0 in
18:31 46.2 °F 45 °F 30 in South 8.5 mph 11 mph 95 % 0 in
18:36 46.2 °F 45 °F 30 in SSW 7.6 mph 11 mph 95 % 0 in
18:41 46.2 °F 45 °F 29.9 in SSW 7.6 mph 10.5 mph 95 % 0 in
18:46 46.2 °F 45 °F 29.9 in SW 6.3 mph 10.5 mph 95 % 0 in
18:51 46 °F 44.8 °F 29.9 in South 6.3 mph 9.6 mph 95 % 0.01 in
18:56 46 °F 44.8 °F 30 in SSW 7.8 mph 9.8 mph 95 % 0.01 in
19:01 46 °F 44.8 °F 30 in South 8.1 mph 10.5 mph 95 % 0.02 in
19:06 46 °F 44.8 °F 30 in South 3.6 mph 10.5 mph 95 % 0.02 in
19:11 46 °F 44.8 °F 29.9 in SSW 4.7 mph 10.7 mph 95 % 0.02 in
19:16 46 °F 44.8 °F 29.9 in SSW 4.9 mph 10.7 mph 95 % 0.02 in
19:21 46 °F 44.8 °F 29.9 in SSW 7.6 mph 10.7 mph 95 % 0.02 in
19:26 46 °F 44.8 °F 29.9 in SSW 6.3 mph 11 mph 95 % 0.02 in
19:31 46 °F 44.8 °F 29.9 in South 6 mph 11 mph 95 % 0.02 in
19:36 46 °F 44.8 °F 29.9 in South 7.6 mph 10.1 mph 95 % 0.02 in
19:41 46 °F 44.8 °F 29.9 in SSW 6.5 mph 11 mph 95 % 0.02 in
19:46 46 °F 44.8 °F 29.9 in South 9.8 mph 11 mph 95 % 0.01 in
19:51 46 °F 44.8 °F 29.9 in SSW 4.3 mph 10.7 mph 95 % 0.03 in
19:56 46 °F 44.8 °F 29.9 in SSW 5.6 mph 10.1 mph 95 % 0.03 in
20:01 46 °F 44.8 °F 29.9 in SSW 6 mph 10.1 mph 95 % 0.01 in
20:06 46 °F 44.8 °F 29.9 in SSW 5.8 mph 11 mph 95 % 0.01 in
20:11 46 °F 44.8 °F 29.9 in SSW 6.3 mph 11 mph 95 % 0.01 in
20:16 46 °F 44.8 °F 29.9 in South 6.5 mph 9.8 mph 95 % 0.01 in
20:21 46 °F 44.8 °F 29.9 in South 6.5 mph 9.8 mph 95 % 0.03 in
20:26 46 °F 44.8 °F 29.9 in WSW 6 mph 10.1 mph 95 % 0.03 in
20:31 46 °F 44.8 °F 29.9 in SW 6 mph 12.1 mph 95 % 0.03 in
20:36 46.2 °F 45 °F 29.9 in South 5.4 mph 12.1 mph 95 % 0.04 in
20:41 46 °F 44.8 °F 29.9 in SSW 5.6 mph 12.8 mph 95 % 0.04 in
20:46 46 °F 44.8 °F 29.9 in SSW 4.3 mph 12.8 mph 95 % 0.04 in
20:51 46 °F 44.8 °F 29.9 in SW 6 mph 9.6 mph 95 % 0.03 in
20:56 46 °F 44.8 °F 29.9 in WSW 8.1 mph 10.1 mph 95 % 0.04 in
21:01 46 °F 44.8 °F 29.9 in South 4 mph 12.1 mph 95 % 0.04 in
21:06 46 °F 44.8 °F 29.9 in South 5.8 mph 12.3 mph 95 % 0.06 in
21:11 46 °F 44.8 °F 29.9 in SSW 9.2 mph 12.3 mph 95 % 0.06 in
21:16 46 °F 44.8 °F 29.9 in SSW 8.5 mph 12.3 mph 95 % 0.07 in
21:21 46 °F 44.8 °F 29.9 in SW 8.1 mph 14.1 mph 95 % 0.06 in
21:26 46 °F 44.8 °F 29.9 in SSW 6.7 mph 14.1 mph 95 % 0.07 in
21:31 46 °F 44.8 °F 29.9 in SSE 13.6 mph 13.6 mph 95 % 0.07 in
21:36 46 °F 44.8 °F 29.9 in South 3.8 mph 13.6 mph 95 % 0.07 in
21:41 46 °F 44.8 °F 29.9 in SSW 4.9 mph 12.1 mph 95 % 0.08 in
21:46 46 °F 44.8 °F 29.9 in SSW 6 mph 16.1 mph 95 % 0.08 in
21:52 46 °F 44.8 °F 29.8 in SSE 7.6 mph 16.1 mph 95 % 0.07 in
21:57 46 °F 44.8 °F 29.8 in SSW 7.6 mph 13 mph 95 % 0.06 in
22:02 46 °F 44.8 °F 29.8 in SSW 10.7 mph 14.1 mph 95 % 0.06 in
22:07 45.9 °F 44.6 °F 29.8 in South 7.4 mph 14.1 mph 95 % 0.08 in
22:12 45.9 °F 44.6 °F 29.8 in SSW 10.3 mph 12.5 mph 95 % 0.08 in
22:17 45.9 °F 44.6 °F 29.8 in SSW 7.4 mph 12.1 mph 95 % 0.07 in
22:22 45.9 °F 44.6 °F 29.8 in SSW 8.5 mph 12.1 mph 95 % 0.08 in
22:27 45.9 °F 44.6 °F 29.8 in SSW 8.7 mph 13.6 mph 95 % 0.07 in
22:32 45.9 °F 44.6 °F 29.8 in SSW 6.5 mph 13.6 mph 95 % 0.07 in
22:37 45.9 °F 44.6 °F 29.8 in SW 7.8 mph 12.1 mph 95 % 0.07 in
22:42 45.9 °F 44.4 °F 29.8 in SW 10.1 mph 12.1 mph 95 % 0.06 in
22:47 45.9 °F 44.4 °F 29.8 in SSW 6 mph 11 mph 95 % 0.06 in
22:52 45.9 °F 44.4 °F 29.8 in SSW 7.6 mph 11 mph 95 % 0.06 in
22:57 45.9 °F 44.4 °F 29.8 in SW 10.5 mph 11 mph 95 % 0.06 in
23:02 45.9 °F 44.4 °F 29.8 in WSW 7.8 mph 11 mph 95 % 0.06 in
23:07 45.9 °F 44.4 °F 29.8 in SSW 6 mph 12.3 mph 95 % 0.03 in
23:12 45.9 °F 44.4 °F 29.8 in SSW 6.5 mph 12.3 mph 95 % 0.04 in
23:17 45.9 °F 44.6 °F 29.8 in SW 8.7 mph 12.1 mph 95 % 0.04 in
23:22 45.9 °F 44.6 °F 29.8 in SW 6.3 mph 12.8 mph 95 % 0.02 in
23:27 45.9 °F 44.6 °F 29.8 in WSW 6 mph 12.8 mph 95 % 0.02 in
23:32 45.9 °F 45 °F 29.8 in WSW 10.3 mph 13.9 mph 96 % 0.02 in
23:37 45.9 °F 45 °F 29.8 in WSW 8.1 mph 13.9 mph 96 % 0.01 in
23:42 45.9 °F 45 °F 29.8 in West 8.7 mph 10.7 mph 96 % 0.01 in
23:47 46 °F 44.8 °F 29.8 in WNW 7.2 mph 10.7 mph 95 % 0.01 in
23:52 45.1 °F 43.9 °F 29.8 in NNE 3.6 mph 12.3 mph 95 % 0.07 in
23:57 44.8 °F 43.3 °F 29.8 in NW 4 mph 12.3 mph 95 % 0.07 in
Le Gheer Warneton
Courtoisie de Weather Underground - 2.5 mb

Mise a jour : 18/12/2017 23:10:11
Généré par Cumulus 1.9.4 (1099)